Regional Weather Roundup
Issued by NWS

Home | Current Version | Previous Version | Text Only | Print | Product List | Glossary Off
Versions: 1 2 3 4 5 6 7 8 9 10 11 12 13 14 15 16 17 18 19 20 21 22 23 24 25 26 27 28 29 30 31 32 33 34 35 36 37 38 39 40 41 42 43 44 45 46 47 48 49 50

372
ASUS43 KTOP 261408
RWRKS

WEATHER ROUNDUP FOR KANSAS
NATIONAL WEATHER SERVICE GOODLAND KS
900 AM CDT THU MAY 26 2016

NOTE:  "FAIR" INDICATES FEW OR NO CLOUDS BELOW 12,000 FEET WITH NO
SIGNIFICANT WEATHER AND/OR OBSTRUCTIONS TO VISIBILITY.

KSZ001>006-013>018-027>032-041>047-261500-
NORTHWEST KANSAS

CITY           SKY/WX    TMP DP  RH WIND       PRES   REMARKS
GOODLAND       SUNNY     63  49  60 NE7       29.90R
HAYS           CLOUDY    57  54  88 N13       29.84S
HILL CITY      CLOUDY    63  53  70 NE10      29.87F
RUSSELL        MOSUNNY   65  59  81 NE15      29.81F
$$

KSZ061>065-074>080-084>089-261500-
SOUTHWEST KANSAS

CITY           SKY/WX    TMP DP  RH WIND       PRES   REMARKS
DODGE CITY     SUNNY     68  59  73 W8        29.79S
ELKHART          N/A     64  39  39 W6          N/A
GARDEN CITY    PTSUNNY   62  58  86 NW12      29.81F
GREAT BEND     CLOUDY    72  64  78 NE12      29.79S
LIBERAL        MOSUNNY   70  46  43 NE3       29.82R
PRATT          PTSUNNY   74  68  80 S14       29.79S
$$

KSZ066>073-081>083-090>101-261500-
SOUTHEAST KANSAS

CITY           SKY/WX    TMP DP  RH WIND       PRES   REMARKS
CHANUTE        CLOUDY    78  73  84 S13       29.88F HAZE
COFFEYVILLE    PTSUNNY   79  74  84 S10       29.88F
HUTCHINSON     PTSUNNY   78  72  81 SE16      29.79S HAZE
MEDICINE LODGE   N/A     76  71  85 S6        29.79S
NEWTON         PTSUNNY   77  70  78 S17G23    29.84F
PARSONS        CLOUDY    78  74  87 S8        29.90F
WICHITA INTL   PTSUNNY   79  73  82 SE16      29.81S HAZE
WICHITA JABRA  PTSUNNY   78  73  84 S18       29.81F
WICHITA MCCONL MOSUNNY   78  72  83 S14       29.83S
WINFIELD       CLOUDY    78  73  84 SE8       29.84S HAZE
$$

KSZ007>012-019>026-033>040-048>060-102>105-261500-
NORTHEAST KANSAS

CITY           SKY/WX    TMP DP  RH WIND       PRES   REMARKS
CONCORDIA      MOSUNNY   69  61  75 E12       29.84S
EMPORIA        CLOUDY    77  73  87 SE14      29.84F
LAWRENCE       TSTM      66  63  90 NE6       29.90R
MANHATTAN      PTSUNNY   73  67  81 E6        29.83F
MARYSVILLE     SUNNY     72  66  83 E9        29.85F
OLATHE IND     PTSUNNY   71  63  75 SE12      29.91R
OLATHE EXE     PTSUNNY   68  63  84 SE12      29.92R
SALINA         CLOUDY    72  67  84 E6        29.81F
TOPEKA BILLARD CLOUDY    67  64  90 E7        29.87S
TOPEKA FORBES  TSTM      68  64  87 E7        29.87S
$$




USA.gov is the U.S. government's official web portal to all federal, state and local government web resources and services.